Location: Casa Rossa
(45.2389°N, 12.2056°E)
Time: 04:18:44
(UTC+00:00)

Cosmos 1378 Rocket - Pass Details

Date: 14 July 2020
Orbit: 602 x 626 km, 82.5° (Epoch: 11 August)

Event Time Altitude Azimuth Distance (km) Brightness Sun altitude
Rises 02:16:51 0° 347° (NNW) 2,900 7.5 -11.6°
Reaches altitude 10° 02:19:06 10° 344° (NNW) 1,993 6.6 -11.4°
Maximum altitude 02:23:26 61° 265° (W) 711 3.6 -10.9°
Drops below altitude 10° 02:27:47 10° 186° (S) 1,990 5.7 -10.3°
Enters shadow 02:28:30 - 184° (S) 2,273 6.0 -10.2°
